Regional Weather Roundup
Issued by NWS State College, PA

Home | Current Version | Previous Version | Graphics & Text | Print | Product List | Glossary On
Versions: 1 2 3 4 5 6 7 8 9 10 11 12 13 14 15 16 17 18 19 20 21 22 23 24 25 26 27 28 29 30 31 32 33 34 35 36 37 38 39 40 41 42 43 44 45 46 47 48 49 50
000
ASUS41 KCTP 071903
RWRCTP

REGIONAL WEATHER ROUNDUP
NATIONAL WEATHER SERVICE STATE COLLEGE PA
200 PM EST SUN FEB 07 2016

Note: "fair" indicates few or no clouds below 12,000 feet with no
significant weather and/or obstructions to visibility.

* = STATION THAT DOES NOT REPORT PRECIPITATION /E.G. RAIN...SNOW...ETC/
    THUNDER OR FOG.

PAZ002>004-007>009-013>016-020>023-029>032-072000-
WESTERN PENNSYLVANIA

CITY           SKY/WX    TMP DP  RH WIND       PRES   REMARKS
ERIE           MOSUNNY   50  23  34 S15       29.92F
MEADVILLE      MOSUNNY   47  23  38 S9G21     29.93F
FRANKLIN*      MOSUNNY   45  27  49 S10       29.97F
NEW CASTLE     FAIR      49  24  37 VRB7      29.96F
BEAVER COUNTY  NOT AVBL
BUTLER*        SUNNY     48  25  40 SW9       30.00F
PITTSBURGH INT MOSUNNY   49  20  31 SW10G16   29.97F
PITTSBURGH     SUNNY     49  24  37 S9        29.98F
INDIANA*       SUNNY     45  25  45 VRB7      30.02F
LATROBE        NOT AVBL
WASHINGTON CO* SUNNY     48  23  37 SW9       29.98F
$$

PAZ004>006-010>012-017>019-024>028-033>037-041-042-045-046-049>053-072000-
CENTRAL PENNSYLVANIA

CITY           SKY/WX    TMP DP  RH WIND       PRES   REMARKS
BRADFORD       SUNNY     41  23  48 S13       29.95F
DUBOIS         CLOUDY    42  22  44 SW7       29.96F
CLEARFIELD     CLOUDY    45  24  43 S5        29.99F
JOHNSTOWN      CLOUDY    43  22  43 NW10      29.95F
ALTOONA        SUNNY     44  23  43 SE6       30.00F
STATE COLLEGE  SUNNY     45  23  42 CALM      30.00F
WILLIAMSPORT   SUNNY     47  21  35 CALM      30.03F
SELINSGROVE    CLOUDY    44  21  40 CALM      30.07F
FT INDIANTOWN  CLOUDY    42  18  37 SW1       30.07F
CAPITAL CITY   CLOUDY    44  18  35 CALM      30.07F
HARRISBURG     PTSUNNY   44  17  33 S3        30.07F
YORK           CLOUDY    42  17  36 CALM      30.07F
$$

PAZ038>040-043-044-047-048-054-055-060>062-067>071-072000-
EASTERN PENNSYLVANIA

CITY           SKY/WX    TMP DP  RH WIND       PRES   REMARKS
SCRANTON       SUNNY     45  22  40 CALM      30.04F
MOUNT POCONO   SUNNY     42  19  39 CALM      30.01F
ALLENTOWN      CLOUDY    47  17  30 CALM      30.07F
QUAKERTOWN*    CLOUDY    45  19  36 CALM      30.07F
READING        CLOUDY    46  17  31 NW5       30.07F
LANCASTER      MOSUNNY   42  21  43 CALM      30.08F
COATESVILLE    PTCLDY    43  19  39 CALM      30.07F
POTTSTOWN      CLOUDY    45  20  36 CALM      30.08F
BLUE BELL        N/A     43  23  45 CALM      30.07F
DOYLESTOWN     CLOUDY    44  14  29 CALM      30.06F
WILLOW GROVE   NOT AVBL
NORTH PHILA    MOSUNNY   46  24  42 E6        30.09F
PHILADELPHIA   CLOUDY    46  23  40 E7        30.08F
$$



USA.gov is the U.S. government's official web portal to all federal, state and local government web resources and services.